This demonstration page uses our WeatherBlox Daily Observations layout. Learn more.

Left ArrowRight Arrow

47.50024, -111.30081

Hourly Observations for August 14, 2022

Temp ( °F °C ) Dew Point ( °F °C ) Humidity (%) Winds ( mph kmh ) Pressure ( in mb ) Visibility ( mi km ) Precip ( " mm )
12:53 am 00:53 Clear 66 18.9 49 9.4 54 54 WSW 9 15 29.91 1013 10 16 0.00 0.00
1:53 am 01:53 Mostly Cloudy 63 17.2 49 9.4 60 60 SW 9 15 29.92 1013 10 16 0.00 0.00
2:53 am 02:53 Clear 61 16.1 46 7.8 58 58 SSW 12 19 29.93 1014 10 16 0.00 0.00
3:53 am 03:53 Clear 60 15.6 45 7.2 57 57 NNE 6 9 29.95 1014 10 16 0.00 0.00
4:53 am 04:53 Clear 62 16.7 43 6.1 50 50 N 3 6 29.95 1014 10 16 0.00 0.00
5:53 am 05:53 Clear 56 13.3 43 6.1 62 62 SW 6 9 29.97 1015 10 16 0.00 0.00
6:53 am 06:53 Mostly Sunny 63 17.2 42 5.6 46 46 WNW 5 7 29.99 1016 10 16 0.00 0.00
7:53 am 07:53 Sunny 70 21.1 44 6.7 39 39 S 5 7 29.99 1016 10 16 0.00 0.00
8:53 am 08:53 Sunny 74 23.3 42 5.6 32 32 WSW 7 11 30.00 1016 10 16 0.00 0.00
9:53 am 09:53 Sunny 78 25.6 40 4.4 25 25 NW 6 9 30.01 1016 10 16 0.00 0.00
10:53 am 10:53 Sunny 80 26.7 34 1.1 19 19 W 9 15 30.02 1017 10 16 0.00 0.00
11:53 am 11:53 Sunny 83 28.3 30 -1.1 15 15 NNW 8 13 30.00 1016 10 16 0.00 0.00
12:53 pm 12:53 Sunny 85 29.4 27 -2.8 12 12 NE 9 15 29.98 1015 10 16 0.00 0.00
1:53 pm 13:53 Sunny 86 30 27 -2.8 12 12 VRB 5 7 29.98 1015 10 16 0.00 0.00
2:53 pm 14:53 Sunny 88 31.1 30 -1.1 12 12 NE 13 20 29.97 1015 10 16 0.00 0.00
3:53 pm 15:53 Sunny 90 32.2 29 -1.7 11 11 N 12 19 29.95 1014 10 16 0.00 0.00
4:53 pm 16:53 Sunny 90 32.2 26 -3.3 10 10 N 12 19 29.94 1014 10 16 0.00 0.00
5:53 pm 17:53 Sunny 90 32.2 25 -3.9 10 10 ENE 7 11 29.94 1014 10 16 0.00 0.00
6:53 pm 18:53 Sunny 88 31.1 27 -2.8 11 11 NNE 6 9 29.93 1013 10 16 0.00 0.00
7:53 pm 19:53 Sunny 83 28.3 28 -2.2 14 14 ENE 9 15 29.93 1014 10 16 0.00 0.00
8:53 pm 20:53 Clear 72 22.2 30 -1.1 21 21 NE 10 17 29.95 1014 10 16 0.00 0.00
9:53 pm 21:53 Clear 74 23.3 32 0 21 21 ENE 10 17 29.96 1014 10 16 0.00 0.00
10:53 pm 22:53 Clear 68 20 32 0 26 26 ESE 6 9 29.97 1015 10 16 0.00 0.00
11:53 pm 23:53 Clear 68 20 32 0 26 26 ENE 3 6 29.97 1015 10 16 0.00 0.00

Powered by AerisWeather